STARLINK-1765 (46344 NORAD) Tracking and Keplerian Element Data

This shows tracking and keplerian element data for the satellite.

Feedback or suggestion? Click here.




ElementValue
Catalog46344
NameSTARLINK-1765
Epoch Orbit177
Epoch Day338.66668981
Epoch Year2020
RAAN345.1599
Inclination52.9973
Eccentricity0.0001302
Argument of Perigee68.3505
Mean Anonmoly242.227
Mean Motion15.17938123
Decay Rate-0.01052598
L11 46344U 20062V 20338.66668981 -.01052598 00000-0 -55938-1 0 9990
L22 46344 52.9973 345.1599 0001302 68.3505 242.2270 15.17938123 1771

Live tracking and technical data element details for STARLINK-1765 (NORAD 46344). STARLINK-1765 can be tracked NOW for your location showing map with azimuth and elevation plus other details from your city location.

Track the satellite on the map from your city or location and see movement details for azimuth, elevation, latitude, longitude, range, height, and movement on the map or in text.







IsCatalogInMostPopularTable: catalog: 46344, numindb: 29
Update: records affected: 1



GetName: 46344 STARLINK-1765

Hit Count: updated at: Sat, 05 Dec 2020 05:10:22 GMT